Regional Weather Roundup
Issued by NWS State College, PA

Home | Current Version | Previous Version | Graphics & Text | Print | Product List | Glossary Off
Versions: 1 2 3 4 5 6 7 8 9 10 11 12 13 14 15 16 17 18 19 20 21 22 23 24 25 26 27 28 29 30 31 32 33 34 35 36 37 38 39 40 41 42 43 44 45 46 47 48 49 50

000
ASUS41 KCTP 081503
RWRCTP

REGIONAL WEATHER ROUNDUP
NATIONAL WEATHER SERVICE STATE COLLEGE PA
1000 AM EST MON FEB 08 2016

Note: "fair" indicates few or no clouds below 12,000 feet with no
significant weather and/or obstructions to visibility.

* = STATION THAT DOES NOT REPORT PRECIPITATION /E.G. RAIN...SNOW...ETC/
    THUNDER OR FOG.

PAZ002>004-007>009-013>016-020>023-029>032-081600-
WESTERN PENNSYLVANIA

CITY           SKY/WX    TMP DP  RH WIND       PRES   REMARKS
ERIE           CLOUDY    41  24  51 S8        29.63F
MEADVILLE      CLOUDY    38  24  57 SE3       29.62F
FRANKLIN*      MOSUNNY   37  23  56 SE9       29.65F
NEW CASTLE     CLOUDY    39  25  57 VRB3      29.63F
BEAVER COUNTY  MOSUNNY   37  25  60 SE7       29.62F
BUTLER*        MOSUNNY   37  25  60 SE6       29.67F
PITTSBURGH INT CLOUDY    38  23  55 SE9       29.62F
PITTSBURGH     PTSUNNY   40  27  59 SE6       29.63F
INDIANA*       PTSUNNY   39  25  56 S13G21    29.69F
LATROBE        PTSUNNY   39  25  56 SE16      29.66F
WASHINGTON CO* CLOUDY    37  25  60 S3        29.63F
$$

PAZ004>006-010>012-017>019-024>028-033>037-041-042-045-046-049>053-081600-
CENTRAL PENNSYLVANIA

CITY           SKY/WX    TMP DP  RH WIND       PRES   REMARKS
BRADFORD       CLOUDY    34  23  64 SE8       29.66F
DUBOIS         CLOUDY    34  22  61 SE9       29.66F
CLEARFIELD     CLOUDY    32  23  69 VRB3      29.71F
JOHNSTOWN      MOSUNNY   35  20  54 SE14      29.65F
ALTOONA        CLOUDY    34  27  75 CALM      29.72F
STATE COLLEGE  SUNNY     32  27  80 CALM      29.74F
WILLIAMSPORT   PTSUNNY   32  26  78 SE5       29.79F
SELINSGROVE    CLOUDY    32  27  81 CALM      29.80F
FT INDIANTOWN  CLOUDY    39  26  59 VRB6      29.80F
CAPITAL CITY   CLOUDY    37  25  61 E6        29.80F
HARRISBURG     CLOUDY    38  24  57 E9        29.79F
YORK           MOSUNNY   37  25  61 E7        29.79F
$$

PAZ038>040-043-044-047-048-054-055-060>062-067>071-081600-
EASTERN PENNSYLVANIA

CITY           SKY/WX    TMP DP  RH WIND       PRES   REMARKS
SCRANTON       CLOUDY    34  24  67 VRB3      29.79S
MOUNT POCONO   CLOUDY    30  22  72 E9        29.74S
ALLENTOWN      CLOUDY    38  25  59 NE9       29.81R
QUAKERTOWN*    CLOUDY    36  27  69 N5        29.81R
READING        CLOUDY    38  25  59 NE13      29.80F
LANCASTER      CLOUDY    37  26  64 NE7       29.80F
COATESVILLE    PTSUNNY   37  28  70 N6        29.80F
POTTSTOWN      CLOUDY    37  26  64 N7        29.81S
BLUE BELL        N/A     36  28  75 N3        29.79S
DOYLESTOWN     CLOUDY    35  25  66 N7        29.79R
WILLOW GROVE   NOT AVBL
NORTH PHILA    CLOUDY    40  28  62 N9        29.81R
PHILADELPHIA   CLOUDY    41  27  57 NE9       29.80R
$$



USA.gov is the U.S. government's official web portal to all federal, state and local government web resources and services.